Temperature
26 26 26 25 23 23 23 22 22 21 19 15 14 13 11 10 10 9 9 9 9 9 9 9 9 9 8 8 8 7 8 8 8 9 9 10 11 11 12 12 12 13 13 13
25 26 25 22 20 20 19 18 18 17 15 14 13 11 10 10 10 10 10 10 11 11 10 10 10 9 9 9 9 8 8 8 8 8 9 9 10 10 11 11 12 12 12 12
24 25 24 21 17 17 17 16 16 14 13 13 11 11 12 13 13 13 12 12 12 11 11 11 11 11 10 10 10 9 9 9 9 9 9 9 9 10 10 11 11 12 12 12
24 23 22 15 16 16 15 15 14 13 13 13 13 14 14 14 14 13 12 12 11 11 11 11 10 10 10 10 10 10 10 10 10 9 9 9 9 9 9 10 10 11 11 12
23 23 20 16 16 16 16 15 14 14 15 15 14 14 15 14 13 12 11 11 10 10 10 10 10 9 9 9 9 9 10 10 10 9 9 9 9 9 9 9 9 10 10 11
22 21 20 16 16 16 17 15 14 15 15 14 13 14 14 12 11 11 10 10 10 9 9 9 9 9 8 8 8 9 9 9 9 9 9 9 9 9 9 9 9 9 10 10
20 20 18 16 16 17 16 16 15 14 13 13 13 12 11 11 10 10 10 9 9 9 9 8 8 8 7 7 7 7 8 8 8 8 8 9 8 8 8 9 9 9 9 9
19 18 17 15 16 15 15 14 13 13 12 12 11 11 10 10 10 9 9 9 9 8 8 7 7 6 6 6 6 6 6 6 6 7 8 8 9 9 8 8 8 8 8 8
18 18 16 15 14 14 13 13 12 12 11 11 10 10 10 10 9 9 9 9 8 8 7 6 6 5 5 5 5 5 5 5 5 6 7 7 8 8 8 8 9 9 9 8
17 17 16 14 14 13 12 11 11 11 10 10 10 10 9 9 9 9 8 8 8 7 6 5 5 4 4 4 4 4 4 4 4 5 6 6 7 8 9 9 9 9 8 8
16 16 15 14 13 12 11 10 10 10 10 9 9 9 9 9 8 8 8 8 7 7 5 4 4 4 4 4 4 4 4 4 4 4 5 5 7 7 8 8 9 8 8 8
15 14 13 13 12 11 11 10 10 10 9 9 9 9 9 8 8 8 7 7 7 6 4 4 4 4 4 4 4 3 3 3 4 4 4 5 6 7 8 8 8 8 8 8
13 13 12 11 11 11 10 10 10 9 9 9 9 9 8 8 7 7 7 6 6 4 3 3 3 4 4 4 3 3 3 3 3 3 3 4 5 6 7 7 7 7 7 7
12 11 11 11 10 10 10 9 9 9 9 9 8 8 8 7 7 6 6 5 4 3 3 3 3 4 4 3 3 3 3 3 3 3 3 4 4 6 7 7 7 7 7 7
11 11 10 10 10 10 9 9 9 9 8 8 8 7 7 6 6 6 5 4 3 2 2 3 3 3 3 3 3 3 3 3 3 3 3 3 4 6 7 7 7 7 6 6
10 10 10 10 9 9 9 8 8 8 8 7 7 6 6 6 5 5 4 3 2 2 2 3 3 3 3 3 3 3 3 3 2 3 3 4 5 6 7 7 7 6 6 6
10 10 10 9 9 8 8 8 8 7 7 6 6 6 5 5 4 3 3 2 2 2 3 3 3 3 3 3 3 3 3 3 3 3 4 5 6 7 7 7 7 6 6 6
10 9 9 8 8 7 7 7 7 6 6 5 5 5 4 3 3 2 2 2 2 3 3 3 3 3 3 3 3 3 3 3 4 4 5 5 6 6 6 6 6 6 6 6
9 9 8 8 7 7 6 6 6 5 5 5 4 3 3 2 2 3 3 3 3 3 3 3 3 4 4 3 3 3 4 4 4 5 5 6 6 6 6 6 6 5 5 5
9 8 8 7 7 6 6 6 5 5 4 4 3 3 2 2 3 3 3 3 3 3 3 4 4 4 4 4 4 4 4 4 4 5 5 6 6 6 6 5 5 5 6 6
9 8 7 7 6 6 5 5 5 4 4 3 2 2 2 3 3 3 3 3 4 4 4 5 4 4 4 4 4 4 4 5 5 5 6 6 6 6 6 6 6 7 7 8
8 7 6 6 6 5 5 5 4 4 3 2 2 2 2 3 3 3 4 4 4 5 5 5 5 5 5 5 5 5 5 6 6 6 6 6 7 7 7 7 7 8 9 9
7 6 6 5 5 5 5 5 4 3 3 2 2 3 3 3 3 3 3 5 5 6 6 6 6 6 6 6 6 6 6 6 6 7 7 7 7 7 7 8 8 9 10 10
6 6 5 5 5 5 5 4 4 3 3 2 3 3 3 3 4 5 5 6 7 7 7 6 6 6 6 6 6 7 7 7 7 7 8 8 8 8 8 9 10 10 10 10
6 5 5 5 5 5 4 4 4 3 3 3 3 3 3 3 4 5 6 7 7 8 8 7 7 7 7 7 7 7 7 8 8 8 8 8 9 9 10 10 11 11 11 11
6 5 5 5 5 4 4 4 3 3 3 2 2 3 3 4 5 6 6 7 8 8 8 9 8 8 8 8 8 8 8 8 8 8 9 9 10 10 11 11 11 11 12 12
6 6 5 5 5 4 4 4 3 3 3 2 2 2 3 4 5 6 7 7 8 8 8 9 9 9 9 9 9 9 9 9 9 10 10 10 10 11 11 11 12 12 12 12
Wind_Speed
12 12 10 8 8 9 9 10 12 12 5 6 10 12 13 14 16 17 17 15 14 13 12 11 11 11 11 11 12 12 12 13 14 14 16 17 16 16 15 15 17 17 15 13
12 8 5 3 9 7 6 7 7 5 3 8 13 11 13 16 18 19 19 18 18 18 18 17 16 16 16 15 15 14 14 14 13 14 15 15 15 16 15 15 15 16 17 14
10 6 9 1 10 10 6 5 6 4 7 13 15 15 17 20 22 21 20 21 22 22 22 21 21 20 20 19 18 16 16 16 15 15 15 15 16 15 15 14 14 14 16 16
10 11 8 7 6 8 7 4 1 3 10 14 18 21 22 23 21 20 22 24 24 24 24 23 23 23 23 23 21 20 19 18 18 17 17 17 16 15 14 13 12 12 14 16
7 12 3 5 7 13 13 11 7 9 19 23 25 27 24 19 21 24 26 25 25 25 26 25 25 24 24 23 22 22 21 21 20 19 19 18 17 16 15 13 13 12 11 13
7 9 5 6 11 14 11 9 2 19 25 27 28 25 22 24 25 26 26 25 25 26 26 25 24 23 23 24 23 23 23 22 22 20 19 19 18 17 15 14 14 13 10 10
9 8 4 7 13 15 12 13 21 25 26 27 25 24 26 28 28 28 27 26 26 25 23 22 21 22 24 24 23 23 23 23 23 21 20 19 18 16 15 15 15 13 11 7
7 7 2 10 13 11 15 22 24 27 26 25 26 28 28 29 29 28 27 27 27 25 24 22 21 21 24 24 23 21 21 22 23 22 21 19 17 16 15 15 15 14 11 7
5 5 4 9 13 15 19 24 25 23 25 26 27 29 30 29 28 27 27 26 26 26 26 25 23 22 24 24 22 21 20 21 22 23 20 19 17 16 15 14 14 12 9 7
6 6 10 16 16 19 21 23 24 24 26 27 29 30 30 29 28 28 27 26 26 26 26 25 23 22 22 23 22 21 21 20 18 18 19 18 15 14 14 13 12 11 8 7
9 10 15 15 20 22 22 23 24 24 26 27 28 29 29 28 28 27 27 27 26 24 24 25 24 23 22 22 20 21 21 20 17 16 17 16 14 12 12 11 8 7 7 6
8 13 17 22 22 22 23 23 24 27 28 27 27 29 30 28 27 27 28 27 27 25 24 25 25 24 22 21 20 19 18 17 15 13 12 13 13 12 13 12 6 7 8 8
12 17 19 22 23 23 22 25 26 27 28 28 27 28 30 29 27 28 29 30 27 25 25 25 25 24 22 19 17 17 17 15 12 11 11 12 13 13 11 9 8 9 9 10
14 16 20 22 23 23 24 26 26 27 27 27 28 29 29 29 29 30 30 28 25 25 25 24 24 22 20 17 16 16 15 14 12 10 11 12 14 14 13 11 10 8 8 10
15 17 20 22 22 24 25 26 27 27 27 29 29 29 29 30 31 31 29 25 24 25 24 23 22 20 17 15 15 14 10 7 7 9 10 11 13 13 12 11 10 8 6 8
18 19 19 21 24 26 26 27 27 28 30 30 29 29 30 31 31 30 27 25 25 25 24 23 21 17 14 13 11 8 5 8 9 8 9 11 12 13 11 10 9 7 6 6
18 20 21 23 25 26 26 26 27 28 30 30 30 31 31 31 30 28 27 26 25 24 22 20 17 13 12 11 8 5 4 5 9 10 10 11 11 10 8 7 6 5 5 6
16 18 21 23 23 25 26 27 27 28 28 29 30 30 30 30 29 28 28 27 25 23 19 15 12 11 11 9 5 3 2 2 3 6 7 7 7 7 6 5 4 4 4 6
16 18 20 22 22 23 25 25 26 26 27 27 28 28 28 27 27 27 26 25 23 20 17 15 12 10 8 5 3 2 3 3 3 4 4 5 5 5 4 3 3 5 7 9
16 17 20 22 22 23 23 24 24 24 25 26 27 26 27 28 28 27 25 21 16 16 18 16 11 7 5 2 2 1 2 3 4 4 5 5 5 4 4 6 7 7 8 12
16 18 19 21 22 22 22 23 22 24 26 26 25 26 27 27 27 25 22 19 19 21 19 13 7 5 3 2 4 2 2 3 3 4 4 5 6 6 6 6 6 8 12 15
15 16 18 20 21 21 21 21 21 24 25 25 26 25 26 26 25 24 22 17 19 23 16 8 6 6 5 4 2 1 2 2 3 3 4 4 4 4 3 3 5 10 14 15
14 14 16 18 19 20 20 20 22 22 23 24 24 24 24 23 18 18 20 19 18 23 14 9 10 7 5 2 1 0 1 2 2 3 3 3 2 3 3 4 7 11 12 13
13 14 15 16 17 18 19 21 21 20 21 21 21 22 21 18 18 17 16 21 24 23 13 12 13 11 6 3 2 1 0 1 2 2 3 3 3 2 4 6 10 11 12 13
12 13 13 15 15 15 17 19 20 20 21 19 22 23 19 15 16 17 18 20 23 20 15 14 16 14 9 7 5 3 1 0 1 2 3 3 4 5 6 9 10 11 11 11
11 10 10 11 11 12 14 15 15 17 17 18 19 19 18 17 18 17 16 19 22 19 16 14 14 13 11 9 8 7 6 6 6 5 7 7 8 9 9 10 12 10 9 9
9 9 8 9 10 12 13 14 15 16 16 17 18 18 17 17 17 18 19 17 17 16 15 14 14 13 13 12 10 9 7 7 7 8 8 8 9 9 9 10 9 8 8 9
Wind_Direction
282 290 290 302 334 333 314 311 301 321 8 34 358 338 326 315 309 303 300 298 295 291 288 284 280 278 277 279 281 284 290 295 300 306 309 312 313 310 305 291 270 253 241 232
284 288 288 69 20 3 2 348 339 333 11 4 333 314 297 293 292 294 296 297 298 296 294 289 283 279 275 269 262 256 265 273 275 282 289 292 295 297 299 298 284 263 244 231
298 313 264 167 23 7 4 1 350 349 336 321 306 297 298 302 301 299 302 306 308 308 307 306 302 298 294 288 282 277 275 278 275 273 278 281 285 292 299 302 298 277 252 236
299 300 292 83 45 7 331 272 241 316 308 301 302 309 308 301 306 314 314 312 310 308 306 304 303 301 300 297 290 284 281 282 279 277 279 281 281 285 292 298 298 290 268 245
315 309 107 108 20 347 319 287 237 300 317 319 319 312 306 319 327 317 311 308 307 305 303 303 302 301 299 296 291 284 281 281 279 278 278 276 275 278 283 289 292 288 282 262
333 316 326 50 359 335 308 281 283 321 320 320 320 314 315 323 316 311 310 308 307 306 304 302 301 301 299 297 294 290 289 289 284 277 275 272 270 273 275 280 282 281 277 271
335 320 55 13 342 330 313 322 325 318 317 317 315 310 309 311 311 310 308 307 307 305 303 303 303 300 295 292 291 291 290 290 286 279 274 267 264 264 266 269 275 278 273 265
333 323 343 1 341 335 314 314 316 316 315 314 312 309 309 310 309 309 308 307 307 306 305 304 301 297 292 290 291 291 289 289 285 279 273 268 264 259 257 261 265 268 267 252
326 317 325 328 318 315 319 317 316 314 314 313 311 310 312 311 310 309 307 306 307 307 306 305 301 296 290 289 288 284 281 283 282 276 269 265 264 261 254 248 253 261 259 241
297 291 304 313 313 320 322 318 315 313 311 311 310 311 312 311 310 309 307 306 306 307 306 304 300 293 286 286 284 280 277 275 273 272 267 260 255 252 250 248 250 256 257 236
292 307 311 309 320 323 320 317 314 312 311 311 311 311 311 311 310 309 308 306 306 306 304 301 298 292 288 287 284 278 276 272 264 258 261 261 254 248 254 254 256 261 257 227
315 324 314 314 321 319 317 317 317 316 314 313 312 311 312 311 310 308 307 306 307 308 305 300 297 293 292 290 285 278 272 266 261 253 246 249 252 247 227 231 185 200 230 225
302 313 312 312 314 318 318 317 317 315 314 313 314 313 313 310 309 308 307 308 310 309 304 299 296 294 296 295 291 284 272 262 252 244 237 240 249 246 234 199 186 195 202 198
311 316 313 316 318 319 318 317 315 315 314 314 314 314 313 311 309 308 309 312 312 308 304 300 296 297 301 301 298 290 277 258 243 235 234 237 239 235 226 210 195 197 189 188
319 317 313 316 318 320 320 319 319 319 319 318 318 317 315 313 311 311 313 314 312 308 305 302 298 299 304 303 300 295 280 247 234 231 230 232 231 225 216 205 194 189 175 173
316 315 318 320 322 322 323 323 322 322 321 321 321 320 317 314 314 315 316 315 313 310 308 303 298 298 305 303 300 297 270 240 232 231 226 224 221 212 200 188 184 187 184 174
318 321 325 326 326 324 324 323 323 323 322 322 322 321 320 320 320 318 316 315 312 309 306 302 298 302 307 302 293 285 275 255 230 219 216 213 206 195 179 177 188 194 198 187
318 319 323 325 325 324 323 325 325 324 323 323 323 324 325 324 321 317 316 316 315 313 314 312 306 312 312 304 288 257 244 251 201 198 202 199 187 171 164 169 178 201 215 204
320 323 325 325 325 324 324 325 326 325 324 325 327 328 326 321 318 318 320 321 322 326 329 328 313 308 315 322 300 248 220 201 196 204 207 179 185 175 167 181 208 221 226 212
322 326 326 325 327 328 327 328 328 326 326 329 332 329 324 324 324 325 327 327 330 335 333 331 328 326 329 337 272 207 186 191 190 200 203 192 190 190 203 216 220 220 196 176
327 329 327 326 327 329 330 330 329 328 330 335 334 328 325 326 329 331 332 335 337 338 338 334 341 346 354 347 255 228 183 177 179 185 188 189 197 208 209 207 204 173 161 165
327 328 327 327 328 329 331 331 333 333 335 335 332 329 330 332 334 335 335 339 337 337 342 345 357 8 355 316 276 227 157 154 163 170 181 193 200 189 161 157 156 155 157 160
326 327 327 328 329 328 329 335 337 338 337 334 331 333 335 334 335 337 337 337 340 341 349 2 5 5 330 294 289 239 147 149 152 154 166 169 135 106 128 150 155 155 155 156
324 327 328 329 329 330 335 337 338 338 336 332 334 339 340 338 337 339 336 333 342 345 360 10 9 5 340 355 346 328 312 141 149 148 139 125 115 138 164 156 147 147 151 156
323 325 328 332 333 335 334 336 339 340 339 339 341 344 345 342 338 335 337 340 346 349 359 6 7 4 10 12 10 8 4 60 174 149 132 131 142 145 137 127 127 133 140 147
322 323 327 325 331 332 337 341 342 341 340 342 342 344 344 344 342 342 342 344 349 352 359 2 5 10 16 17 22 34 59 91 114 124 122 127 122 115 109 111 117 121 126 132
317 323 325 332 341 343 341 342 342 339 341 343 339 342 344 345 346 345 346 349 352 355 360 3 6 12 19 21 23 29 45 73 91 98 102 102 103 104 107 111 115 122 129 134
Height
1495 1491 1492 1496 1500 1500 1500 1500 1500 1499 1507 1521 1526 1528 1526 1523 1519 1514 1509 1504 1500 1496 1492 1488 1485 1482 1478 1474 1471 1468 1464 1462 1460 1457 1454 1451 1448 1447 1445 1443 1442 1443 1443 1441
1498 1491 1493 1505 1511 1509 1513 1514 1513 1517 1523 1527 1529 1528 1523 1518 1514 1509 1504 1500 1496 1492 1488 1483 1480 1476 1472 1468 1465 1462 1459 1455 1452 1451 1450 1447 1446 1443 1440 1437 1434 1434 1435 1435
1498 1492 1497 1509 1527 1523 1524 1525 1524 1526 1530 1528 1525 1521 1516 1510 1505 1501 1497 1493 1489 1486 1482 1478 1474 1470 1466 1462 1460 1457 1453 1451 1448 1447 1446 1443 1441 1438 1434 1431 1428 1426 1427 1428
1499 1499 1508 1535 1530 1530 1529 1528 1528 1529 1528 1524 1518 1512 1509 1504 1497 1494 1491 1488 1483 1479 1474 1470 1466 1462 1458 1454 1451 1448 1445 1443 1441 1440 1438 1436 1434 1431 1428 1425 1422 1420 1420 1421
1504 1503 1514 1530 1529 1530 1527 1524 1526 1526 1520 1516 1511 1505 1499 1496 1494 1491 1487 1482 1477 1472 1467 1462 1458 1454 1449 1445 1442 1439 1437 1434 1432 1430 1428 1427 1426 1424 1422 1420 1418 1416 1413 1413
1510 1514 1514 1531 1531 1529 1525 1519 1523 1520 1516 1511 1506 1497 1491 1492 1490 1485 1480 1475 1469 1464 1459 1454 1449 1445 1440 1436 1432 1429 1427 1425 1423 1421 1419 1418 1417 1417 1416 1414 1413 1410 1407 1406
1517 1515 1524 1533 1530 1526 1522 1520 1521 1517 1513 1509 1504 1499 1492 1486 1482 1477 1472 1466 1461 1455 1450 1445 1441 1436 1430 1426 1422 1419 1417 1414 1412 1411 1410 1409 1409 1409 1409 1408 1406 1405 1402 1399
1522 1523 1530 1532 1529 1529 1528 1524 1519 1514 1509 1504 1499 1493 1487 1481 1475 1469 1463 1457 1452 1445 1439 1435 1431 1425 1419 1415 1412 1409 1406 1403 1401 1400 1400 1399 1399 1400 1400 1400 1399 1398 1396 1394
1530 1530 1532 1532 1531 1529 1526 1521 1516 1511 1505 1500 1493 1486 1480 1473 1466 1460 1455 1448 1442 1435 1428 1423 1419 1414 1407 1402 1400 1397 1394 1391 1390 1389 1389 1390 1391 1391 1392 1392 1392 1391 1390 1389
1531 1527 1530 1530 1528 1526 1524 1519 1513 1507 1501 1494 1487 1480 1472 1465 1458 1452 1445 1439 1432 1425 1417 1410 1406 1401 1395 1390 1387 1384 1381 1378 1377 1377 1378 1380 1382 1383 1384 1384 1385 1384 1384 1384
1531 1529 1530 1526 1526 1523 1518 1514 1508 1501 1496 1489 1481 1473 1466 1457 1450 1443 1435 1429 1422 1414 1405 1398 1392 1387 1383 1379 1375 1371 1368 1366 1366 1366 1367 1370 1372 1374 1376 1378 1379 1379 1379 1380
1532 1532 1531 1525 1522 1518 1513 1507 1501 1494 1487 1481 1475 1466 1458 1450 1442 1434 1426 1418 1410 1402 1394 1386 1379 1374 1370 1366 1362 1357 1354 1353 1354 1355 1357 1360 1363 1366 1368 1371 1372 1374 1375 1376
1536 1532 1529 1523 1518 1514 1508 1502 1495 1489 1482 1474 1467 1460 1451 1442 1433 1425 1417 1408 1399 1390 1381 1374 1367 1362 1358 1353 1349 1345 1342 1341 1342 1344 1347 1350 1354 1358 1361 1363 1365 1368 1369 1372
1533 1530 1524 1519 1514 1509 1503 1496 1489 1482 1476 1469 1460 1452 1443 1434 1425 1416 1407 1398 1388 1378 1370 1363 1356 1351 1347 1343 1338 1334 1331 1330 1332 1335 1338 1342 1346 1350 1354 1357 1359 1362 1364 1367
1530 1526 1521 1515 1509 1504 1497 1490 1483 1476 1468 1460 1452 1444 1435 1426 1416 1406 1396 1386 1376 1367 1359 1352 1346 1342 1338 1333 1329 1326 1323 1323 1324 1327 1331 1334 1338 1343 1347 1351 1355 1358 1361 1364
1526 1522 1516 1511 1505 1499 1492 1485 1478 1470 1461 1453 1444 1436 1428 1418 1408 1397 1386 1376 1366 1356 1349 1342 1337 1333 1330 1326 1323 1320 1318 1318 1319 1322 1325 1328 1333 1337 1342 1345 1350 1354 1357 1361
1522 1516 1511 1506 1501 1495 1488 1482 1475 1466 1456 1447 1438 1429 1420 1410 1399 1388 1376 1366 1357 1348 1340 1333 1329 1326 1323 1320 1318 1316 1315 1314 1315 1318 1321 1325 1330 1334 1337 1341 1344 1348 1352 1356
1520 1515 1510 1505 1498 1491 1484 1477 1470 1461 1452 1443 1434 1424 1414 1403 1391 1379 1367 1357 1348 1340 1333 1327 1323 1321 1319 1316 1315 1315 1314 1314 1315 1318 1321 1325 1328 1331 1334 1337 1340 1343 1346 1350
1516 1512 1507 1502 1496 1489 1481 1474 1465 1457 1448 1439 1430 1420 1409 1398 1386 1374 1362 1352 1343 1334 1328 1322 1319 1318 1316 1315 1314 1314 1314 1315 1317 1319 1322 1324 1327 1330 1331 1333 1335 1338 1340 1344
1513 1508 1503 1497 1492 1485 1478 1470 1462 1453 1445 1437 1427 1416 1404 1393 1382 1370 1359 1349 1341 1333 1326 1320 1318 1317 1316 1315 1315 1315 1316 1317 1319 1320 1323 1325 1327 1328 1329 1330 1331 1332 1335 1340
1509 1505 1499 1493 1487 1481 1475 1468 1460 1451 1442 1433 1424 1413 1402 1391 1380 1368 1357 1347 1339 1332 1325 1322 1319 1318 1318 1317 1316 1317 1318 1319 1320 1321 1323 1325 1326 1327 1327 1328 1329 1331 1337 1344
1506 1501 1496 1490 1483 1477 1471 1465 1458 1449 1440 1431 1421 1412 1401 1390 1378 1367 1358 1350 1341 1334 1328 1325 1323 1321 1320 1319 1319 1320 1321 1321 1322 1323 1324 1325 1326 1326 1326 1327 1330 1335 1342 1348
1502 1498 1492 1487 1481 1475 1469 1463 1456 1448 1438 1429 1420 1412 1402 1391 1381 1371 1361 1352 1345 1339 1333 1329 1327 1325 1323 1323 1322 1323 1323 1324 1325 1326 1326 1327 1327 1328 1329 1331 1335 1340 1346 1352
1498 1494 1490 1484 1479 1474 1468 1461 1454 1446 1437 1429 1421 1413 1403 1392 1382 1374 1367 1358 1351 1345 1340 1336 1332 1329 1327 1326 1325 1325 1326 1326 1327 1328 1329 1330 1330 1331 1333 1337 1341 1346 1351 1355
1495 1491 1487 1482 1478 1473 1467 1460 1453 1444 1436 1428 1421 1413 1405 1396 1387 1379 1372 1365 1358 1352 1347 1342 1338 1334 1331 1329 1327 1327 1327 1328 1329 1331 1332 1333 1335 1337 1340 1343 1347 1351 1355 1359
1492 1488 1484 1481 1477 1472 1467 1460 1453 1446 1437 1429 1421 1413 1406 1398 1390 1382 1376 1371 1365 1359 1354 1349 1345 1342 1339 1336 1334 1333 1332 1332 1333 1335 1337 1339 1341 1344 1346 1349 1353 1356 1360 1364
1489 1486 1482 1479 1475 1471 1466 1461 1455 1448 1441 1433 1424 1416 1409 1401 1393 1387 1380 1375 1370 1365 1360 1356 1353 1350 1348 1345 1343 1342 1341 1341 1341 1342 1344 1345 1347 1349 1352 1355 1358 1361 1365 1368